Location: Newark
(25.0000°N, 73.5000°E)
Time: 04:16:11
(UTC+00:00)

Vanguard 1 Rocket - Visible Passes

Search period start: 04 August 2021 00:00
Search period end: 14 August 2021 00:00
Orbit: 650 x 4226 km, 34.3° (Epoch: 02 August)

Date Brightness Start Highest point End Pass type
(mag) Time Alt. Az. Time Alt. Az. Time Alt. Az.
04 Aug 11.5 23:38:24 10° S 23:58:31 31° SE 00:17:25 10° E visible
05 Aug 11.6 22:29:45 10° S 22:43:50 18° SE 22:58:24 10° E visible
06 Aug 11.4 23:39:11 10° SSW 00:00:46 38° SE 00:21:26 10° ENE visible
07 Aug 11.4 22:29:17 10° S 22:46:11 25° SE 23:04:12 10° E visible
08 Aug 11.5 21:24:21 10° SSE 21:31:57 12° SE 21:40:06 10° ESE visible
08 Aug 11.3 23:40:26 10° SSW 00:02:53 47° SE 00:24:58 10° ENE visible
09 Aug 11.3 22:29:48 10° S 22:48:18 32° SE 23:08:46 10° E visible
10 Aug 11.4 21:22:06 10° SSE 21:34:18 18° SE 21:48:37 10° E visible
10 Aug 11.1 23:42:02 10° SSW 00:04:55 56° SE 00:28:10 10° ENE visible
11 Aug 11.1 22:32:24 13° SSW 22:50:15 39° SE 23:12:37 10° ENE visible
12 Aug 11.1 21:25:22 16° SSE 21:36:22 24° SE 21:54:18 10° E visible
12 Aug 11.0 23:43:56 10° SW 00:06:58 65° SE 00:31:09 10° ENE visible
13 Aug 11.4 20:18:30 10° SE 20:23:04 11° SE 20:28:01 10° ESE visible
13 Aug 10.9 22:35:38 18° SSW 22:52:08 47° SE 23:15:59 10° ENE visible
